Temperature
9 8 7 8 8 9 9 9 9 9 10 9 9 9 9 10 10 10 10 10 10 10 10 10 10 10 10 10 10 10 10 10 10 10 10 10 10 10 10 10 10 10 10 10
8 8 8 9 9 9 9 9 8 8 9 9 8 8 9 9 9 10 10 10 10 10 10 10 10 10 10 10 10 10 9 9 10 10 9 9 9 9 9 10 10 10 10 10
8 8 9 9 9 9 9 8 8 8 8 8 8 8 8 9 9 10 10 10 10 10 10 10 10 10 10 10 9 9 9 9 9 9 9 9 9 9 9 9 9 9 9 9
8 8 9 9 9 9 8 8 9 8 7 6 8 7 8 8 8 9 9 9 10 10 9 9 9 9 9 9 9 9 9 9 9 9 9 9 9 9 9 9 9 9 9 9
8 8 8 9 8 8 8 8 8 8 7 6 7 6 7 8 8 8 8 9 9 9 9 9 9 9 9 9 9 9 9 8 8 8 8 8 8 8 8 8 8 8 8 8
7 8 8 8 8 8 8 7 7 5 5 6 7 6 7 7 8 8 8 9 9 9 9 9 9 9 9 8 8 8 8 8 8 8 8 8 8 8 8 8 8 8 8 8
7 7 8 8 8 8 7 6 5 6 5 6 7 7 7 8 8 8 8 8 9 9 9 8 8 8 8 8 8 8 8 8 8 8 8 8 7 7 7 7 7 7 7 7
6 6 7 7 7 7 7 6 6 7 6 6 6 6 7 8 8 9 9 9 9 8 8 8 8 8 8 8 8 8 8 8 7 7 7 7 7 7 7 7 7 7 7 7
6 6 7 7 7 7 7 6 6 5 5 5 6 6 7 8 7 7 8 8 8 8 8 8 8 8 8 8 8 8 7 7 7 7 7 7 7 7 6 6 6 6 6 6
6 6 6 7 7 7 7 6 4 5 6 6 6 6 6 7 7 7 7 7 8 8 8 8 8 8 8 8 7 7 7 7 7 7 7 7 6 6 6 6 6 6 6 6
6 6 5 6 6 6 6 6 5 4 4 5 5 6 7 7 7 7 7 7 8 8 8 8 8 7 7 7 7 7 7 7 7 7 6 6 6 6 6 6 6 5 5 5
6 4 4 5 6 6 6 6 5 5 5 4 4 6 7 6 6 7 7 8 8 8 8 8 7 7 7 7 7 7 7 6 6 6 6 6 6 5 5 5 5 5 5 5
6 5 5 6 6 6 6 6 5 5 4 3 4 6 7 6 6 7 7 7 8 8 7 7 7 7 7 7 7 6 6 6 6 6 6 5 5 5 5 5 5 5 5 5
6 4 5 6 6 5 5 5 5 4 4 3 4 5 6 6 6 6 7 7 7 7 7 7 7 7 6 6 6 6 6 6 5 5 5 5 5 5 5 5 4 4 4 4
5 4 4 4 5 5 5 5 5 4 4 4 5 5 6 6 6 6 7 7 7 7 7 7 6 6 6 6 6 5 5 5 5 5 5 5 5 4 4 4 4 4 4 4
4 4 4 4 5 4 4 4 4 4 5 4 4 5 6 6 7 6 6 6 6 6 6 6 6 6 6 5 5 5 5 5 5 4 4 4 4 4 4 4 4 4 3 3
2 3 3 3 4 4 4 4 4 4 4 4 5 5 5 5 5 5 6 6 6 6 6 6 5 5 5 5 5 5 4 4 4 4 4 4 4 4 4 3 3 3 3 3
2 2 2 2 3 4 5 5 5 4 4 4 4 4 4 5 5 6 6 5 5 5 5 5 5 5 5 5 4 4 4 4 4 3 3 3 3 3 3 3 3 3 2 2
2 2 2 2 2 3 4 5 4 4 4 4 4 4 4 5 4 4 5 5 5 5 5 5 5 4 4 4 4 3 3 3 3 3 3 3 3 3 2 2 2 2 2 2
2 2 2 2 2 3 5 5 5 4 4 4 4 3 4 4 2 3 5 4 4 4 4 4 4 4 3 3 3 3 3 3 3 2 2 2 2 2 2 2 2 2 2 1
1 1 1 1 2 3 4 4 5 4 4 4 4 4 4 3 3 4 4 4 4 4 3 3 3 3 3 3 2 2 2 2 2 2 2 2 2 2 1 1 1 1 1 1
1 1 1 1 1 2 3 3 3 4 4 4 4 4 4 4 4 4 4 3 3 3 3 3 3 2 2 2 2 2 2 2 1 1 1 1 1 1 1 1 1 1 0 0
1 2 1 2 3 3 4 4 4 4 4 4 4 4 4 3 3 3 3 3 3 3 2 2 2 2 2 2 2 2 1 1 1 1 1 1 1 1 1 0 0 0 -0 -0
0 1 1 1 1 2 3 4 4 4 4 4 4 3 3 3 3 3 2 2 2 2 2 2 2 1 1 1 1 1 1 1 1 1 1 0 0 0 0 -0 -0 -0 -1 -1
0 0 0 0 1 2 3 3 4 3 3 3 3 3 3 2 2 2 2 2 2 1 1 1 1 1 1 1 1 1 0 0 0 0 0 0 -0 -0 -0 -0 -1 -1 -1 -1
-0 0 0 1 2 1 2 3 3 3 3 3 2 2 2 2 2 1 1 1 1 1 1 1 0 0 0 0 0 0 0 0 0 -0 -0 -0 -0 -1 -1 -1 -1 -1 -1 -1
Wind_Speed
2 3 1 3 4 4 3 3 6 6 5 3 6 9 11 7 4 5 4 4 4 3 3 3 4 5 5 4 4 4 5 4 4 3 3 3 2 2 2 2 3 3 3 3
4 2 5 3 2 0 1 3 5 6 4 3 5 9 9 6 4 5 5 5 5 3 2 4 4 4 4 4 4 4 4 4 4 3 3 2 2 2 1 1 2 3 3 2
4 4 3 1 1 0 2 4 4 5 6 4 4 8 6 5 3 3 3 4 4 5 6 5 5 5 4 4 5 4 4 4 4 4 3 3 3 2 2 1 1 2 2 2
2 3 1 0 1 1 4 4 3 3 3 4 2 5 7 5 4 3 3 2 4 4 5 5 6 5 5 4 4 4 4 4 3 4 4 4 3 2 2 1 1 1 2 2
3 1 1 2 3 2 4 3 3 3 1 3 2 2 8 3 4 5 5 4 4 4 5 5 6 6 5 4 4 4 4 3 3 4 4 4 3 2 1 1 1 1 1 1
3 2 2 3 2 1 1 4 4 3 3 2 3 4 6 4 5 4 4 4 4 3 3 3 4 4 3 3 3 3 4 3 3 3 3 4 4 3 2 1 1 1 0 0
4 3 2 1 1 3 3 4 4 5 3 5 3 3 7 7 5 4 4 4 4 4 4 4 3 4 4 5 5 4 4 3 2 3 3 3 3 3 3 3 3 2 1 1
1 5 3 2 3 3 1 4 4 3 4 5 4 4 6 5 3 1 2 3 3 3 3 4 4 4 5 5 5 5 4 3 3 3 3 3 3 2 2 3 3 2 2 2
4 5 2 1 2 4 3 3 4 3 1 3 6 6 7 2 3 2 1 2 2 2 3 3 3 4 4 5 5 5 5 3 3 3 3 3 3 3 3 2 2 2 2 2
5 3 3 2 1 0 3 4 4 3 2 4 6 5 4 4 3 1 1 2 2 1 2 2 2 3 3 4 4 4 4 4 4 3 3 2 2 3 3 2 3 2 2 2
3 3 3 1 4 5 3 3 3 3 3 3 4 6 4 5 4 4 4 4 4 3 2 2 2 2 2 2 3 4 4 4 4 4 3 3 3 3 3 3 3 3 2 2
3 4 3 6 5 4 5 6 6 4 4 4 3 7 4 3 3 3 4 3 3 3 2 2 2 2 2 2 3 4 4 4 5 4 4 4 3 3 3 3 3 3 3 3
4 4 1 5 3 0 3 4 4 3 3 4 5 7 3 1 1 2 3 4 3 3 2 2 2 3 3 3 3 3 4 5 4 4 4 3 3 3 4 4 3 3 3 3
3 4 6 8 6 4 5 5 5 5 4 6 9 9 6 5 5 5 4 5 4 4 4 3 3 4 4 4 4 4 4 4 4 4 4 4 4 4 4 4 3 3 3 3
3 4 6 8 8 6 8 9 8 10 10 9 9 9 11 8 7 6 5 4 4 4 4 4 4 4 4 4 4 4 4 4 4 5 5 5 4 4 3 3 3 3 3 4
2 4 3 6 7 8 10 11 11 11 10 11 11 12 10 7 4 4 4 4 4 4 4 4 4 4 5 5 4 4 4 4 4 5 5 4 4 3 3 4 3 3 3 3
3 4 2 5 4 4 9 10 11 8 7 8 11 12 6 4 5 5 4 4 4 4 4 4 5 5 5 5 4 4 4 4 4 4 4 4 4 4 4 3 3 4 3 3
7 5 3 3 1 7 7 2 6 7 7 7 6 6 5 6 4 3 3 3 4 4 5 5 4 4 3 3 3 3 2 3 4 4 4 4 4 4 3 3 4 4 3 3
8 7 4 3 4 8 7 3 3 5 5 4 7 7 5 2 2 4 3 2 4 4 5 5 4 4 3 3 2 2 2 3 3 4 4 4 4 4 4 4 5 4 3 4
4 5 5 4 5 7 6 2 1 2 4 3 3 5 4 0 1 5 4 3 4 4 3 3 2 2 2 2 2 2 3 3 5 5 5 5 5 5 5 5 5 3 4 5
4 4 7 8 7 8 6 2 3 3 5 3 3 3 3 4 5 4 4 4 3 3 4 3 2 3 3 2 1 2 3 5 6 5 4 4 4 5 5 4 4 3 4 4
8 7 8 7 7 9 3 3 4 6 2 2 3 3 4 4 4 4 4 4 3 3 3 3 3 3 3 2 2 4 5 5 4 3 4 4 4 4 3 4 4 3 3 4
7 8 6 8 8 4 4 6 5 3 3 3 3 4 3 4 4 5 4 4 3 3 3 3 3 4 4 3 3 5 5 4 3 3 4 4 4 3 3 4 4 3 3 3
4 4 4 5 7 5 4 4 4 4 4 4 3 3 3 4 5 5 4 4 4 4 4 3 3 4 5 5 4 5 5 4 3 4 4 4 3 3 3 3 3 4 4 4
6 3 4 6 6 4 5 5 5 4 3 3 3 3 3 4 5 5 4 4 4 4 4 3 4 5 6 6 5 4 4 3 4 4 4 4 4 4 3 4 4 5 5 6
6 7 6 7 6 5 6 5 3 3 4 4 4 4 3 3 5 4 4 4 4 4 4 4 4 5 6 5 6 5 4 4 4 4 4 4 3 3 3 3 4 5 6 8
Wind_Direction
40 72 216 234 215 214 232 245 274 273 279 295 275 282 288 287 263 248 235 214 217 228 239 170 164 150 140 137 141 139 136 132 121 114 115 117 108 96 88 87 86 80 73 77
42 275 247 238 251 249 243 264 282 294 303 289 286 289 285 278 249 232 222 219 214 217 202 172 167 152 151 155 150 140 142 139 134 132 128 133 134 124 116 101 80 83 76 67
194 247 260 207 306 305 282 236 254 277 314 325 318 310 294 293 272 255 230 209 199 196 190 180 170 172 165 167 169 161 151 141 138 131 113 102 81 72 72 75 62 64 77 69
247 270 262 309 262 180 264 261 260 282 333 299 357 300 289 283 288 268 243 222 209 206 186 182 176 176 181 185 169 154 149 142 144 138 139 142 149 161 195 177 154 91 82 85
268 272 229 241 250 212 236 291 294 280 244 301 290 219 287 301 274 266 244 228 215 198 185 187 186 180 183 174 162 154 141 137 136 140 149 148 149 160 145 122 128 107 76 91
255 274 214 222 267 238 278 5 6 28 72 296 247 191 281 264 251 264 245 220 209 192 182 183 180 163 159 148 146 141 137 139 145 138 137 149 158 157 149 164 188 197 187 91
321 304 280 149 33 5 58 64 16 356 355 259 275 215 253 264 261 238 221 205 202 186 172 169 165 167 165 163 163 158 154 157 160 148 149 159 168 170 185 194 197 197 203 218
248 285 250 200 182 192 188 142 159 222 250 287 316 248 260 287 300 293 167 166 168 174 176 180 182 179 178 178 173 166 169 169 167 167 174 170 171 180 196 202 198 196 209 225
191 254 296 229 207 158 157 190 175 149 258 286 284 288 303 335 9 26 78 121 158 190 188 192 189 182 185 183 182 177 176 180 184 183 177 181 178 182 196 199 194 199 211 220
170 233 273 295 72 352 163 151 106 141 196 267 290 280 268 282 276 264 207 198 223 232 213 202 201 198 192 191 189 177 183 196 204 194 193 196 194 199 197 187 197 207 220 226
161 182 292 325 204 204 166 165 156 161 179 188 267 273 238 237 237 223 228 221 209 209 214 209 206 204 185 178 185 186 192 200 203 200 200 198 203 206 201 202 213 215 223 222
165 146 243 254 253 217 194 189 162 176 227 200 217 268 279 242 232 212 226 233 219 208 214 208 197 179 183 201 205 201 200 202 205 200 195 201 206 205 208 217 223 219 221 227
153 139 328 328 326 265 223 212 192 175 166 190 204 259 306 347 285 259 239 235 229 222 224 213 201 201 209 219 223 221 213 211 209 197 193 201 210 213 220 226 227 222 223 229
130 170 193 215 233 210 244 249 213 183 204 224 228 249 278 283 281 279 265 241 229 229 221 215 221 225 223 224 225 229 230 216 205 197 197 209 222 224 229 233 233 231 228 230
130 218 236 253 263 250 245 247 227 218 217 221 243 242 257 257 255 255 254 246 239 244 238 229 227 231 227 224 223 224 227 218 204 199 207 221 226 224 229 238 240 240 238 239
162 216 248 272 261 259 262 252 237 233 232 238 256 264 261 264 261 267 259 244 245 256 253 248 244 239 232 228 228 229 230 222 203 204 217 224 220 222 230 237 238 240 248 249
193 185 212 262 286 299 265 239 223 220 216 210 236 252 267 262 259 251 249 240 242 254 258 256 253 247 241 238 230 231 234 221 206 216 224 226 223 230 240 241 240 241 246 250
184 180 202 256 285 243 247 238 212 219 237 225 241 266 264 258 255 248 228 232 258 263 266 265 260 262 261 247 240 238 234 214 212 223 230 230 225 235 244 243 243 248 249 252
185 177 195 208 244 271 286 265 202 207 258 238 241 264 275 279 334 299 270 245 248 258 263 262 255 256 254 251 241 235 241 232 227 232 236 236 228 233 237 243 249 249 249 255
170 173 189 204 227 245 249 259 227 139 260 266 230 244 261 203 261 270 287 295 289 286 282 282 282 282 266 265 235 229 244 239 242 242 241 242 233 229 235 242 249 249 243 249
160 187 206 218 236 258 251 259 99 183 253 255 234 235 225 222 230 252 282 295 291 294 299 298 291 282 272 273 251 250 254 252 252 249 247 246 239 234 238 244 247 248 249 256
186 189 202 199 220 248 227 139 185 227 251 228 240 233 233 249 261 269 278 285 295 306 310 303 293 289 283 257 240 254 259 261 259 250 246 245 245 243 241 235 248 248 242 251
207 199 195 201 221 243 196 202 223 217 236 244 243 258 248 257 267 277 277 284 290 291 292 293 275 281 283 265 241 251 264 263 249 244 247 249 251 246 234 230 240 249 239 241
253 215 205 242 257 254 246 246 248 235 232 239 232 248 247 256 265 275 279 286 292 293 289 285 279 283 287 282 269 257 264 256 239 243 249 247 246 254 247 240 235 237 241 246
240 216 226 251 270 293 274 247 245 246 245 250 258 248 242 254 269 268 275 279 279 287 285 277 275 277 282 286 283 276 263 245 243 246 247 247 245 249 255 253 242 242 241 237
219 212 219 244 238 236 256 258 252 248 256 255 258 272 272 249 257 267 272 274 277 283 288 291 285 281 283 284 283 280 267 242 239 249 250 246 245 246 247 255 274 263 255 262
Height
1515 1519 1522 1519 1517 1517 1517 1518 1517 1513 1508 1509 1506 1502 1496 1494 1493 1491 1491 1491 1491 1491 1492 1493 1493 1494 1495 1496 1497 1498 1499 1500 1501 1502 1503 1505 1506 1507 1508 1509 1510 1511 1511 1512
1519 1520 1516 1515 1514 1515 1515 1517 1517 1512 1508 1508 1505 1502 1495 1491 1490 1488 1488 1488 1488 1489 1491 1492 1492 1492 1494 1495 1496 1497 1498 1498 1499 1500 1502 1503 1504 1505 1506 1507 1507 1508 1509 1510
1519 1517 1513 1514 1514 1515 1516 1516 1515 1514 1510 1507 1507 1502 1495 1490 1488 1487 1487 1487 1487 1488 1488 1489 1490 1491 1493 1494 1495 1495 1496 1497 1498 1499 1500 1501 1502 1503 1504 1504 1505 1506 1506 1507
1517 1514 1513 1513 1514 1514 1517 1512 1512 1511 1515 1516 1512 1515 1497 1491 1489 1486 1486 1485 1486 1487 1487 1488 1488 1489 1490 1492 1494 1495 1495 1496 1497 1498 1499 1499 1500 1501 1501 1502 1503 1503 1504 1505
1517 1514 1513 1514 1514 1513 1513 1511 1511 1511 1513 1517 1513 1515 1501 1493 1490 1486 1484 1484 1484 1485 1485 1486 1486 1488 1490 1491 1492 1494 1494 1495 1496 1496 1497 1498 1499 1499 1500 1500 1501 1501 1502 1502
1515 1513 1512 1512 1512 1511 1511 1512 1512 1516 1518 1519 1511 1515 1504 1495 1488 1484 1483 1483 1483 1483 1484 1485 1486 1487 1489 1490 1491 1492 1493 1494 1495 1495 1496 1496 1497 1497 1498 1498 1499 1499 1499 1500
1517 1514 1511 1511 1512 1512 1513 1520 1527 1526 1528 1519 1509 1510 1502 1487 1484 1482 1482 1482 1482 1482 1483 1484 1485 1486 1487 1488 1490 1491 1492 1492 1493 1493 1494 1495 1496 1496 1496 1496 1497 1496 1496 1497
1521 1519 1512 1510 1511 1513 1514 1518 1526 1525 1525 1519 1510 1508 1495 1485 1482 1481 1480 1481 1481 1482 1482 1483 1483 1484 1485 1487 1488 1489 1490 1490 1491 1492 1492 1493 1494 1494 1494 1494 1494 1494 1494 1494
1519 1517 1510 1509 1509 1510 1513 1518 1517 1525 1526 1524 1514 1504 1491 1484 1483 1482 1481 1481 1481 1481 1482 1482 1482 1483 1484 1485 1486 1487 1488 1489 1490 1490 1491 1491 1491 1492 1492 1492 1492 1492 1492 1492
1513 1516 1511 1510 1509 1509 1511 1513 1521 1523 1522 1520 1512 1506 1498 1488 1484 1483 1482 1481 1481 1481 1482 1482 1482 1482 1483 1484 1485 1486 1487 1487 1488 1488 1489 1489 1489 1489 1489 1489 1489 1489 1489 1489
1510 1516 1515 1512 1510 1510 1512 1513 1515 1521 1522 1522 1518 1505 1488 1485 1483 1482 1481 1480 1480 1481 1481 1481 1481 1482 1482 1483 1484 1484 1485 1486 1486 1486 1486 1486 1486 1487 1486 1486 1486 1486 1486 1486
1509 1515 1518 1512 1506 1505 1507 1508 1512 1517 1518 1520 1519 1505 1482 1482 1480 1480 1480 1480 1480 1480 1480 1480 1480 1480 1481 1481 1481 1482 1482 1483 1483 1484 1484 1484 1484 1483 1483 1483 1483 1482 1482 1482
1507 1513 1517 1511 1511 1507 1506 1504 1506 1509 1513 1518 1516 1500 1482 1481 1480 1479 1479 1479 1479 1479 1479 1479 1479 1479 1479 1479 1479 1479 1480 1480 1480 1480 1480 1480 1480 1480 1480 1479 1479 1478 1478 1478
1504 1510 1512 1508 1503 1503 1504 1502 1503 1507 1511 1511 1504 1492 1484 1482 1480 1479 1478 1477 1477 1477 1477 1476 1476 1476 1477 1477 1477 1476 1477 1477 1477 1477 1477 1476 1476 1476 1476 1475 1475 1474 1474 1474
1504 1508 1507 1503 1499 1500 1499 1498 1498 1500 1498 1500 1491 1488 1481 1479 1478 1476 1475 1475 1475 1474 1474 1474 1473 1473 1473 1473 1473 1473 1473 1473 1473 1473 1473 1472 1472 1472 1472 1471 1471 1470 1470 1470
1503 1505 1505 1502 1498 1497 1496 1493 1492 1491 1490 1490 1487 1482 1475 1475 1475 1474 1473 1473 1472 1471 1471 1471 1470 1470 1470 1470 1470 1470 1469 1469 1469 1469 1469 1468 1468 1468 1468 1467 1467 1466 1466 1466
1503 1504 1505 1503 1498 1495 1492 1484 1484 1484 1482 1482 1481 1476 1473 1473 1472 1471 1471 1470 1469 1469 1468 1468 1467 1467 1466 1466 1466 1466 1466 1465 1465 1465 1465 1465 1464 1464 1463 1463 1463 1462 1462 1461
1500 1502 1504 1503 1500 1497 1480 1475 1474 1476 1476 1476 1474 1472 1471 1470 1469 1468 1468 1467 1467 1467 1466 1465 1464 1464 1463 1463 1463 1463 1462 1462 1461 1461 1461 1461 1460 1460 1459 1459 1458 1458 1458 1457
1492 1497 1501 1502 1499 1488 1478 1473 1473 1475 1473 1472 1471 1469 1468 1468 1468 1466 1466 1465 1465 1464 1463 1462 1461 1461 1460 1460 1459 1459 1458 1458 1457 1457 1457 1456 1456 1455 1455 1455 1454 1453 1453 1452
1490 1492 1498 1498 1495 1488 1474 1470 1468 1471 1472 1468 1467 1466 1466 1466 1469 1466 1464 1463 1462 1461 1460 1459 1458 1457 1456 1456 1455 1454 1454 1453 1453 1453 1452 1452 1452 1451 1451 1450 1450 1449 1448 1448
1492 1493 1494 1494 1491 1480 1471 1468 1468 1475 1470 1466 1464 1464 1464 1464 1464 1463 1461 1460 1459 1458 1457 1456 1455 1454 1453 1452 1451 1450 1450 1449 1449 1448 1448 1447 1447 1447 1446 1445 1445 1444 1444 1443
1483 1487 1487 1487 1488 1480 1466 1467 1469 1467 1464 1463 1463 1462 1462 1461 1460 1459 1458 1457 1456 1454 1453 1452 1451 1450 1449 1448 1447 1446 1445 1445 1444 1444 1443 1442 1442 1442 1441 1441 1440 1440 1439 1438
1476 1474 1474 1474 1471 1464 1462 1462 1462 1462 1462 1461 1461 1460 1460 1459 1458 1457 1456 1454 1453 1452 1450 1449 1448 1446 1445 1444 1443 1442 1441 1441 1440 1439 1438 1438 1437 1437 1437 1436 1435 1435 1434 1433
1471 1468 1469 1469 1463 1460 1460 1460 1460 1460 1460 1459 1459 1458 1457 1456 1455 1454 1452 1451 1450 1448 1447 1445 1444 1442 1441 1440 1439 1438 1437 1436 1435 1434 1434 1433 1433 1432 1432 1431 1431 1430 1429 1428
1467 1466 1465 1464 1460 1458 1457 1457 1457 1457 1457 1456 1456 1455 1454 1453 1452 1451 1449 1448 1446 1445 1443 1442 1440 1438 1437 1436 1435 1434 1433 1432 1431 1430 1430 1429 1429 1428 1427 1427 1426 1425 1425 1424
1460 1461 1462 1459 1456 1456 1454 1454 1454 1454 1453 1453 1452 1451 1450 1449 1448 1447 1445 1444 1443 1441 1439 1438 1436 1434 1433 1432 1430 1429 1428 1427 1426 1425 1425 1425 1424 1424 1423 1422 1421 1420 1420 1419